Location: La Bastide
(43.1661°N, 1.2755°E)
Time: 14:43:59
(UTC+00:00)

BlueWalker 3 - Pass Details

Date: 20 February 2026
Orbit: 451 x 458 km, 53.2° (Epoch: 6 March)

Event Time Altitude Azimuth Distance (km) Brightness Sun altitude
Rises 05:58:53 0° 183° (S) 2,459 5.5 -9.2°
Reaches altitude 10° 06:02:04 10° 152° (SSE) 1,591 5.0 -8.6°
Maximum altitude 06:03:35 12° 127° (SE) 1,457 5.3 -8.3°
Drops below altitude 10° 06:05:06 10° 102° (ESE) 1,594 6.2 -8.1°
Sets 06:08:17 0° 72° (ENE) 2,471 6.8 -7.5°
